This demonstration page uses our WeatherBlox Daily Observations layout. Learn more.

Left ArrowRight Arrow

53.62937, 11.41316

Hourly Observations for March 23, 2019

Temp ( °F °C ) Dew Point ( °F °C ) Humidity (%) Winds ( mph kmh ) Pressure ( in mb ) Visibility ( mi km ) Precip ( " mm )
6:50 am 06:50 Cloudy with Mist and Fog 43 6 43 6 100 100 WNW 9 15 30.27 1025 2 3 N/A
7:20 am 07:20 Cloudy with Mist and Fog 43 6 43 6 100 100 WNW 7 11 30.30 1026 2 3 N/A
7:50 am 07:50 Cloudy with Mist and Fog 43 6 41 5 93 93 WNW 10 17 30.30 1026 2 3 N/A
8:20 am 08:20 Cloudy with Mist and Fog 45 7 43 6 93 93 W 8 13 30.30 1026 2 3 N/A
8:50 am 08:50 Cloudy with Mist and Fog 45 7 43 6 93 93 WNW 8 13 30.30 1026 2 3 N/A
9:20 am 09:20 Cloudy with Mist and Fog 45 7 43 6 93 93 W 8 13 30.33 1027 2 3 N/A
9:50 am 09:50 Cloudy with Mist and Fog 46 8 43 6 87 87 W 8 13 30.33 1027 2 3 N/A
10:20 am 10:20 Cloudy with Mist and Fog 46 8 43 6 87 87 W 8 13 30.33 1027 2 3 N/A
10:50 am 10:50 Cloudy with Mist and Fog 48 9 45 7 87 87 W 6 9 30.33 1027 2 3 N/A
11:20 am 11:20 Cloudy with Mist and Fog 48 9 45 7 87 87 W 9 15 30.33 1027 2 4 N/A
11:50 am 11:50 Cloudy with Mist and Fog 48 9 45 7 87 87 W 8 13 30.33 1027 2 4 N/A
12:20 pm 12:20 Cloudy with Mist and Fog 48 9 45 7 87 87 W 8 13 30.33 1027 2 4 N/A
12:50 pm 12:50 Cloudy with Mist and Fog 48 9 45 7 87 87 W 8 13 30.36 1028 2 4 N/A
1:20 pm 13:20 Cloudy with Mist and Fog 48 9 45 7 87 87 W 8 13 30.36 1028 3 5 N/A
1:50 pm 13:50 Cloudy with Mist and Fog 50 10 45 7 82 82 W 8 13 30.36 1028 3 5 N/A
2:20 pm 14:20 Mostly Cloudy with Mist and Fog 52 11 43 6 72 72 W 9 15 30.36 1028 3 5 N/A
2:50 pm 14:50 Partly Cloudy 52 11 43 6 72 72 W 9 15 30.36 1028 30 48 N/A
3:20 pm 15:20 Partly Cloudy 52 11 43 6 72 72 W 9 15 30.36 1028 30 48 N/A
3:50 pm 15:50 Partly Cloudy 54 12 41 5 63 63 W 8 13 30.36 1028 30 48 N/A
4:20 pm 16:20 Partly Cloudy 54 12 39 4 58 58 VRB 7 11 30.36 1028 30 48 N/A
4:50 pm 16:50 Partly Cloudy 54 12 36 2 51 51 VRB 7 11 30.36 1028 30 48 N/A
5:20 pm 17:20 Partly Cloudy 52 11 37 3 58 58 WNW 6 9 30.36 1028 30 48 N/A
5:50 pm 17:50 Mostly Sunny 50 10 36 2 58 58 VRB 6 9 30.39 1029 30 48 N/A
6:20 pm 18:20 Mostly Sunny 48 9 34 1 58 58 WNW 6 9 30.39 1029 30 48 N/A
6:50 pm 18:50 Mostly Clear 48 9 36 2 62 62 WNW 5 7 30.39 1029 7 11 N/A

Powered by AerisWeather